Content
SEND FEEDBACK

Daily
Averages
Monthly
Summary
United States of America

POWNAL, VERMONT


Home > North America > United States > Vermont
Elevation: 1260 feet     Latitude: 42 47N     Longitude: 073 13W

WEATHER
 
SELECT A DAY
Number of Records: 197,182;   Date Range: 10/28/95 - 8/25/14
 
SHARE

PRINT THIS DATA

[ ← Previous Day ]
WEATHER ALMANAC - JANUARY 31, 2013
[ Next Day → ]
[ °C ]   °F
Weather ElementAverageHighLow
Temperature35.5 °F61 °F (3:52 am)24.1 °F (10:52 pm)
Dewpoint26.5 °F53.6 °F (4:33 am)12.9 °F (8:52 pm)
Humidity70.5 %89 % (12:52 am)41 % (12:52 pm)
Barometer29.38 in29.62 in (11:52 pm)28.93 in (6:52 am)
Wind Speed11.8 mph29.9 mph (12:52 pm)
Wind Gust41.4 mph (12:52 pm)
Weather ElementAverage
Visibility4.8 mi
Wind DirectionWSW (234.4 °)

Weather ElementTotal
Precipitation1.09 in
Heating Degree Days22.5 (Base 65)
Averaged from 55 records on January 31, 2013
WEATHER CONDITIONS BREAKOUT
WIND DIRECTION BREAKOUT
WEATHER BY HOUR - JANUARY 31, 2013
[ °C ]   °F
Local TimeTemperatureDewpointHumidityBarometerVisibilityWind DirectionWind SpeedGust SpeedPrecipitationEventsConditions
12:27 AM51.8 °F48.2 °F88 %29.30 in1.5 miENE (60°)4.6 mph0.03 inRainLight Rain
12:45 AM51.8 °F48.2 °F88 %29.28 in3.0 miCalm0.04 inRainLight Rain
12:52 AM51.1 °F48.0 °F89 %29.28 in9.0 miCalm0.04 inRainLight Rain
1:31 AM51.8 °F48.2 °F88 %29.22 in5.0 miEast (90°)8.1 mph0.01 inRainLight Rain
1:52 AM52.0 °F48.9 °F89 %29.17 in7.0 miENE (70°)8.1 mph17.3 mph0.02 inRainLight Rain
2:52 AM57.0 °F52.0 °F83 %29.10 in6.0 miVariable6.9 mph0.02 inRainLight Rain
3:52 AM61.0 °F52.0 °F72 %29.00 in3.0 miSSW (210°)15.0 mph24.2 mph0.05 inRainLight Rain
4:33 AM57.2 °F53.6 °F88 %29.01 in2.0 miWest (260°)12.7 mph19.6 mph0.11 inRainRain
4:43 AM57.2 °F53.6 °F88 %29.00 in1.5 miVariable4.6 mph0.17 inRainHeavy Rain
4:52 AM57.0 °F52.0 °F83 %29.02 in2.5 miWest (280°)8.1 mph0.20 inRainRain
5:01 AM55.4 °F51.8 °F88 %28.98 in3.0 miNNW (330°)6.9 mph0.02 inRainRain
5:52 AM57.0 °F50.0 °F77 %28.96 in4.0 miVariable3.5 mph23.0 mph0.15 inRainLight Rain
6:52 AM57.0 °F46.9 °F69 %28.93 in10.0 miSSW (200°)10.4 mph20.7 mph0.01 inScattered Clouds
7:06 AM44.6 °F37.4 °F76 %29.04 in2.0 miWest (280°)16.1 mph35.7 mph0.04 inRainHeavy Rain
7:20 AM42.8 °F35.6 °F76 %29.07 in5.0 miVariable6.9 mph31.1 mph0.06 inRainLight Rain
7:52 AM39.0 °F33.1 °F79 %29.10 in7.0 miWest (280°)9.2 mph19.6 mph0.08 inRainLight Rain
8:52 AM37.9 °F30.9 °F76 %29.16 in9.0 miWest (280°)10.4 mph17.3 mph0.02 inRainLight Rain
9:52 AM37.9 °F27.0 °F65 %29.19 in10.0 miWest (280°)10.4 mph31.1 mph0.00 inOvercast
10:52 AM37.0 °F23.0 °F57 %29.24 in10.0 miWest (280°)15.0 mph24.2 mphOvercast
11:52 AM37.9 °F18.0 °F45 %29.26 in10.0 miWest (270°)24.2 mph39.1 mph0.01 inOvercast
12:52 PM36.0 °F14.0 °F41 %29.29 in10.0 miWest (270°)29.9 mph41.4 mphOvercast
1:52 PM35.1 °F16.0 °F46 %29.31 in10.0 miWNW (290°)13.8 mph35.7 mphOvercast
2:52 PM35.1 °F16.0 °F46 %29.34 in10.0 miWNW (290°)16.1 mph29.9 mphMostly Cloudy
3:52 PM33.1 °F18.0 °F54 %29.39 in10.0 miWest (270°)11.5 mph23.0 mphOvercast
4:52 PM30.9 °F17.1 °F57 %29.44 in4.0 miWest (270°)12.7 mph20.7 mph0.00 inSnowLight Snow
5:52 PM30.0 °F17.1 °F59 %29.49 in2.5 miWest (280°)15.0 mph34.5 mph0.00 inSnowLight Snow
5:55 PM28.4 °F17.6 °F64 %29.48 in1.5 miWest (270°)15.0 mph34.5 mph0.00 inSnowLight Snow
6:00 PM28.4 °F19.4 °F69 %29.48 in0.8 miWest (280°)11.5 mph21.9 mph0.00 inSnowLight Snow
6:09 PM28.4 °F21.2 °F74 %29.49 in1.0 miWest (280°)12.7 mph17.3 mph0.00 inSnowLight Snow
6:13 PM28.4 °F19.4 °F69 %29.49 in2.5 miWest (270°)12.7 mph20.7 mph0.00 inSnowLight Snow
6:16 PM28.4 °F19.4 °F69 %29.49 in6.0 miWest (260°)10.4 mph20.7 mph0.00 inSnowLight Snow
6:23 PM28.4 °F19.4 °F69 %29.49 in10.0 miWest (270°)12.7 mph0.00 inOvercast
6:52 PM28.9 °F18.0 °F64 %29.52 in10.0 miWNW (290°)9.2 mph18.4 mph0.00 inOvercast
7:44 PM26.6 °F17.6 °F69 %29.54 in2.0 miWest (280°)15.0 mph31.1 mph0.00 inSnowLight Snow
7:48 PM26.6 °F17.6 °F69 %29.55 in1.0 miWest (280°)16.1 mph31.1 mph0.00 inSnowLight Snow
7:52 PM25.0 °F19.0 °F78 %29.57 in0.5 miWest (280°)15.0 mph26.5 mph0.00 inSnowSnow
8:04 PM26.6 °F17.6 °F69 %29.55 in1.2 miWest (270°)16.1 mph26.5 mph0.00 inSnowLight Snow
8:11 PM26.6 °F17.6 °F69 %29.55 in1.8 miWest (270°)13.8 mph24.2 mph0.00 inSnowLight Snow
8:16 PM26.6 °F15.8 °F64 %29.55 in3.0 miWest (270°)15.0 mph25.3 mph0.00 inSnowLight Snow
8:26 PM26.6 °F14.0 °F59 %29.55 in7.0 miWest (280°)11.5 mph31.1 mph0.00 inOvercast
8:52 PM27.0 °F12.9 °F56 %29.58 in10.0 miWest (260°)16.1 mph26.5 mph0.00 inOvercast
9:39 PM26.6 °F15.8 °F64 %29.58 in1.5 miWest (270°)13.8 mph27.6 mph0.00 inSnowLight Snow
9:41 PM26.6 °F17.6 °F69 %29.58 in1.2 miWest (270°)13.8 mph27.6 mph0.00 inSnowLight Snow
9:52 PM25.0 °F17.1 °F72 %29.60 in1.5 miWest (280°)15.0 mph26.5 mph0.00 inSnowLight Snow
10:08 PM24.8 °F17.6 °F74 %29.58 in2.0 miWest (280°)16.1 mph25.3 mph0.00 inSnowLight Snow
10:19 PM24.8 °F15.8 °F69 %29.58 in4.0 miWest (280°)12.7 mph20.7 mph0.00 inSnowLight Snow
10:38 PM24.8 °F15.8 °F69 %29.58 in3.0 miWNW (290°)8.1 mph17.3 mph0.00 inSnowLight Snow
10:42 PM24.8 °F17.6 °F74 %29.58 in1.5 miWNW (290°)8.1 mph17.3 mph0.00 inSnowLight Snow
10:44 PM24.8 °F17.6 °F74 %29.59 in0.8 miWNW (290°)9.2 mph17.3 mph0.00 inSnowLight Snow
10:52 PM24.1 °F19.0 °F81 %29.61 in0.2 miWest (280°)10.4 mph20.7 mph0.01 inSnowHeavy Snow
10:58 PM24.8 °F17.6 °F74 %29.59 in1.0 miWest (280°)11.5 mph0.00 inSnowLight Snow
11:00 PM24.8 °F17.6 °F74 %29.59 in2.5 miWest (280°)8.1 mph17.3 mph0.00 inSnowLight Snow
11:07 PM24.8 °F15.8 °F69 %29.59 in9.0 miWest (280°)18.4 mph23.0 mph0.00 inOvercast
11:21 PM24.8 °F15.8 °F69 %29.59 in10.0 miWNW (290°)9.2 mph20.7 mph0.00 inOvercast
11:52 PM24.1 °F15.1 °F69 %29.62 in9.0 miWest (280°)9.2 mph18.4 mph0.00 inOvercast
Hourly data recorded from KAQW, located miles away from Pownal, Vermont







STORIES FROM OUR PARTNERS